NORTHEAST BAY GARDENE NEAR POINT LA US USGS current weather conditions

sailwx.info

Wind from 098 at 9 knots

Last reported at 2020-Jan-23 18:00 UTC.
Time now 2020-Jan-23 20:10 UTC

Location: N 29°35' W 089°36'.
View on Google Maps.

See reports from other nearby stations

  
Tides and Currents Weather Stations Pressure Air Temp Water Temp Dewpoint Dewpoint Depression Visibility Wind Speed Wind Dir Waves Ship Positions
date/time (UTC)wind fromknots sea level pressurealtimeterstation pressurevisibilityair tempwater tempwave heightnotes
2020-Jan-23 18:00 098 9
2020-Jan-23 17:00 101 6
2020-Jan-23 16:00 073 7
2020-Jan-23 15:00 067 7
2020-Jan-23 14:00 046 9
2020-Jan-23 13:00 051 9
2020-Jan-23 12:00 041 8
2020-Jan-23 11:00 046 5
2020-Jan-23 10:00 058 3
2020-Jan-23 09:00 096 4
2020-Jan-23 08:00 105 24
2020-Jan-23 07:00 103 12
2020-Jan-23 06:00 093 15
2020-Jan-23 05:00 084 12
2020-Jan-23 04:00 084 13
2020-Jan-23 03:00 072 13
2020-Jan-23 02:00 083 21
2020-Jan-23 01:00 088 15
2020-Jan-23 00:00 076 17
2020-Jan-22 23:00 064 18
2020-Jan-22 22:00 054 18
2020-Jan-22 21:00 040 14
2020-Jan-22 20:00 038 15
2020-Jan-22 19:00 039 15
2020-Jan-22 18:00 040 17
2020-Jan-22 17:00 033 13
2020-Jan-22 16:00 036 11
2020-Jan-22 15:00 050 9
2020-Jan-22 14:00 050 12
2020-Jan-22 13:00 068 13
2020-Jan-22 12:00 072 13
2020-Jan-22 11:00 070 16
2020-Jan-22 10:00 063 17
2020-Jan-22 09:00 075 14
2020-Jan-22 08:00 058 14
2020-Jan-22 07:00 053 17
2020-Jan-22 06:00 050 18
2020-Jan-22 05:00 046 19
2020-Jan-22 04:00 026 18
2020-Jan-22 03:00 012 16
2020-Jan-22 02:00 030 13
2020-Jan-22 01:00 038 15
2020-Jan-22 00:00 016 9
2020-Jan-21 23:00 030 15
2020-Jan-21 22:00 035 13
2020-Jan-21 21:00 019 15
2020-Jan-21 20:00 025 15